This is the latest recevied weather packets stored in our database for station/object KC5TIL. If no packets are shown the sender has not sent any weather packets the latest 10 day(s).
| Time | Temp. | Humidity | Pressure | Rain* | Wind** | Luminosity | Snow |
|---|---|---|---|---|---|---|---|
| 1777683733 | 16.67° C | 66% | 1018.5 hPa | 0 mm | - | 3 W/m² | - |
| 1777683430 | 16.67° C | 68% | 1018.2 hPa | 0 mm | - | 6 W/m² | - |
| 1777683128 | 16.67° C | 68% | 1018.2 hPa | 0 mm | - | 12 W/m² | - |
| 1777682824 | 16.67° C | 66% | 1018.1 hPa | 0 mm | - | 16 W/m² | - |
| 1777682521 | 17.22° C | 69% | 1017.9 hPa | 0 mm | - | 23 W/m² | - |
| 1777682219 | 17.22° C | 66% | 1017.9 hPa | 0 mm | - | 22 W/m² | - |
| 1777681916 | 17.22° C | 66% | 1017.8 hPa | 0 mm | - | 20 W/m² | - |
| 1777681611 | 17.22° C | 63% | 1017.9 hPa | 0 mm | - | 22 W/m² | - |
| 1777681310 | 17.78° C | 63% | 1017.9 hPa | 0 mm | - | 23 W/m² | - |
| 1777681007 | 17.78° C | 63% | 1017.5 hPa | 0 mm | - | 31 W/m² | - |
| 1777680704 | 17.78° C | 63% | 1017.5 hPa | 0 mm | - | 42 W/m² | - |
| 1777680402 | 17.78° C | 63% | 1017.4 hPa | 0 mm | - | 46 W/m² | - |
| 1777680099 | 17.22° C | 61% | 1017.4 hPa | 0 mm | - | 44 W/m² | - |
| 1777679795 | 17.78° C | 62% | 1017.5 hPa | 0 mm | - | 34 W/m² | - |
| 1777679491 | 17.78° C | 61% | 1017.4 hPa | 0 mm | - | 38 W/m² | - |
| 1777679186 | 17.78° C | 62% | 1017.4 hPa | 0 mm | - | 55 W/m² | - |
| 1777678884 | 17.78° C | 63% | 1017.6 hPa | 0 mm | - | 60 W/m² | - |
| 1777678582 | 17.78° C | 61% | 1017.5 hPa | 0 mm | - | 69 W/m² | - |
| 1777678280 | 17.78° C | 59% | 1017.5 hPa | 0 mm | - | 74 W/m² | - |
| 1777677975 | 17.78° C | 60% | 1017.4 hPa | 0 mm | - | 68 W/m² | - |
| 1777677673 | 17.78° C | 60% | 1017.2 hPa | 0 mm | - | 64 W/m² | - |
| 1777677370 | 17.78° C | 61% | 1017 hPa | 0 mm | - | 59 W/m² | - |
| 1777677068 | 17.78° C | 61% | 1017.1 hPa | 0 mm | - | 61 W/m² | - |
| 1777676767 | 17.78° C | 60% | 1017 hPa | 0 mm | - | 72 W/m² | - |
| 1777676464 | 17.78° C | 60% | 1016.9 hPa | 0 mm | - | 81 W/m² | - |
* Rain latest hour (hover to see other rain measurements)
** Current wind speed in m/s (hover to see current wind gust speed)